Weather History for Eagle, CO

Change the Weather History Date:

Tuesday, October 4, 2011

  Actual Average Record
Temperature  
Mean Temperature 58 °F -  
Max Temperature 69 °F 67 °F 82 °F (1963)
Min Temperature 46 °F 31 °F 18 °F (1953)
Degree Days  
Heating Degree Days 8    
Growing Degree Days 8 (Base 50)    
Moisture  
Dew Point 42 °F    
Average Humidity 73    
Maximum Humidity 100    
Minimum Humidity 31    
Precipitation  
Precipitation 0.00 in - - ()
Sea Level Pressure  
Sea Level Pressure 30.14 in    
Wind  
Wind Speed 3 mph (SE)    
Max Wind Speed 22 mph    
Max Gust Speed 33 mph    
Visibility 10 miles    
Events      
Averages and records for this station are not official NWS values.
T = Trace of Precipitation, MM = Missing Value Source: NWS Daily Summary

Daily Weather History Graph

Daily Weather History Graph

Search for Another Location

Airport:

Trip Planner

Search our weather history database for the weather conditions in past years. The results will help you decide how hot, cold, wet, or windy it might be!

Date:

Astronomy

Oct. 04, 2011 Rise Set
Actual Time 7:06 AM MDT 6:45 PM MDT
Civil Twilight 6:39 AM MDT 7:12 PM MDT
Nautical Twilight 6:08 AM MDT 7:43 PM MDT
Astronomical Twilight 5:37 AM MDT 8:14 PM MDT
Moon 2:48 PM MDT (10/4) No Moon Set
Length of Visible Light 12h 32m
Length of Day
11h 39m
First Quarter, 56% of the Moon is Illuminated
Oct 4
First Quarter
Oct 11
Full
Oct 19
Last Quarter
Oct 26
New
Nov 2
First Quarter

Hourly Weather History & Observations

Time (MDT) Temp. Windchill Dew Point Humidity Pressure Visibility Wind Dir Wind Speed Gust Speed Precip Events Conditions
12:15 AM 57.2 °F - 42.8 °F 59% 30.20 in 10.0 mi East 3.5 mph - N/A   Overcast
12:55 AM 55.4 °F - 42.8 °F 63% 30.19 in 10.0 mi Calm Calm - N/A   Scattered Clouds
1:15 AM 55.4 °F - 42.8 °F 63% 30.19 in 10.0 mi Calm Calm - N/A   Clear
1:35 AM 53.6 °F - 41.0 °F 62% 30.19 in 10.0 mi Calm Calm - N/A   Clear
1:55 AM 51.8 °F - 39.2 °F 62% 30.20 in 10.0 mi Calm Calm - N/A   Clear
2:15 AM 51.8 °F - 39.2 °F 62% 30.19 in 10.0 mi ESE 8.1 mph - N/A   Clear
2:35 AM 51.8 °F - 41.0 °F 67% 30.19 in 10.0 mi East 4.6 mph - N/A   Clear
2:55 AM 51.8 °F - 39.2 °F 62% 30.19 in 10.0 mi East 3.5 mph - N/A   Scattered Clouds
3:15 AM 48.2 °F - 41.0 °F 76% 30.19 in 10.0 mi Calm Calm - N/A   Mostly Cloudy
3:35 AM 48.2 °F - 39.2 °F 71% 30.19 in 10.0 mi East 3.5 mph - N/A   Mostly Cloudy
3:55 AM 48.2 °F - 39.2 °F 71% 30.19 in 10.0 mi ESE 3.5 mph - N/A   Partly Cloudy
4:15 AM 48.2 °F - 39.2 °F 71% 30.19 in 10.0 mi East 3.5 mph - N/A   Clear
4:35 AM 48.2 °F - 37.4 °F 66% 30.19 in 10.0 mi Calm Calm - N/A   Clear
4:55 AM 46.4 °F 45.2 °F 39.2 °F 76% 30.20 in 10.0 mi WSW 3.5 mph - N/A   Clear
5:15 AM 46.4 °F 42.9 °F 37.4 °F 71% 30.18 in 10.0 mi SE 6.9 mph - N/A   Scattered Clouds
5:35 AM 46.4 °F - 39.2 °F 76% 30.19 in 10.0 mi Calm Calm - N/A   Scattered Clouds
5:55 AM 46.4 °F 44.3 °F 39.2 °F 76% 30.19 in 10.0 mi East 4.6 mph - N/A   Mostly Cloudy
6:15 AM 46.4 °F 43.5 °F 39.2 °F 76% 30.20 in 10.0 mi ESE 5.8 mph - N/A   Scattered Clouds
6:35 AM 46.4 °F - 39.2 °F 76% 30.20 in 10.0 mi Calm Calm - N/A   Overcast
6:50 AM 46.4 °F - 39.2 °F 76% 30.21 in 10.0 mi Calm Calm - N/A   Mostly Cloudy
6:55 AM 46.4 °F - 39.2 °F 76% 30.21 in 10.0 mi Calm Calm - N/A   Overcast
7:50 AM 48.2 °F - 39.2 °F 71% 30.22 in 10.0 mi Calm Calm - N/A   Mostly Cloudy
8:50 AM 51.8 °F - 39.2 °F 62% 30.21 in 10.0 mi Calm Calm - N/A   Mostly Cloudy
9:55 AM 55.4 °F - 39.2 °F 54% 30.21 in 10.0 mi WSW 4.6 mph - N/A   Mostly Cloudy
11:50 AM 64.4 °F - 39.2 °F 40% 30.14 in 10.0 mi Calm Calm - N/A   Scattered Clouds
12:50 PM 66.2 °F - 37.4 °F 35% 30.08 in 10.0 mi Variable 3.5 mph - N/A   Mostly Cloudy
1:50 PM 69.8 °F - 37.4 °F 31% 30.03 in 10.0 mi Calm Calm - N/A   Mostly Cloudy
2:50 PM 69.8 °F - 41.0 °F 35% 30.00 in 10.0 mi West 18.4 mph 23.0 mph N/A   Mostly Cloudy
3:52 PM 60.8 °F - 42.8 °F 52% 30.07 in 10.0 mi SW 21.9 mph 33.4 mph N/A   Overcast
4:55 PM 51.8 °F - 46.4 °F 82% 30.13 in 10.0 mi SW 6.9 mph - N/A   Overcast
5:50 PM 53.6 °F - 44.6 °F 72% 30.13 in 10.0 mi Calm Calm - N/A   Mostly Cloudy
6:50 PM 51.8 °F - 44.6 °F 76% 30.12 in 10.0 mi Calm Calm - N/A   Overcast
7:15 PM 51.8 °F - 46.4 °F 82% 30.11 in 10.0 mi Calm Calm - N/A   Overcast
7:35 PM 51.8 °F - 46.4 °F 82% 30.11 in 10.0 mi Calm Calm - N/A   Overcast
7:55 PM 51.8 °F - 46.4 °F 82% 30.11 in 10.0 mi Calm Calm - N/A   Overcast
8:15 PM 51.8 °F - 48.2 °F 88% 30.10 in 10.0 mi NE 3.5 mph - N/A   Mostly Cloudy
8:35 PM 51.8 °F - 48.2 °F 88% 30.10 in 10.0 mi Calm Calm - N/A   Scattered Clouds
8:55 PM 51.8 °F - 48.2 °F 88% 30.10 in 10.0 mi Calm Calm - N/A   Mostly Cloudy
9:15 PM 50.0 °F - 48.2 °F 94% 30.10 in 10.0 mi Calm Calm - N/A   Overcast
9:35 PM 50.0 °F - 46.4 °F 87% 30.09 in 10.0 mi South 3.5 mph - N/A   Overcast
9:55 PM 50.0 °F - 46.4 °F 87% 30.09 in 10.0 mi Calm Calm - N/A   Mostly Cloudy
10:15 PM 48.2 °F - 46.4 °F 93% 30.09 in 10.0 mi WNW 3.5 mph - N/A   Partly Cloudy
10:35 PM 48.2 °F - 46.4 °F 93% 30.08 in 10.0 mi WSW 3.5 mph - N/A   Mostly Cloudy
10:55 PM 48.2 °F - 46.4 °F 93% 30.08 in 10.0 mi Calm Calm - N/A   Overcast
11:15 PM 48.2 °F - 46.4 °F 93% 30.07 in 10.0 mi Calm Calm - N/A   Scattered Clouds
11:35 PM 46.4 °F - 46.4 °F 100% 30.07 in 10.0 mi Calm Calm - N/A   Partly Cloudy
11:55 PM 46.4 °F - 44.6 °F 93% 30.07 in 10.0 mi Calm Calm - N/A   Mostly Cloudy